[keps] orb10049.2l.amsat

Ray Hoad ray.hoad at mypbmail.com
Thu Feb 18 20:03:30 PST 2010


SB KEPS @ AMSAT  $ORB10049.N
2Line Orbital Elements 10049.AMSAT

HR AMSAT ORBITAL ELEMENTS FOR AMATEUR SATELLITES IN NASA FORMAT
FROM WA5QGD FORT WORTH,TX February 18, 2010
Send Subscribe/unsubscribe to KEPS at http://www.amsat.org/mailman/listinfo/keps
BID: ORB10049.N

DECODE 2-LINE ELSETS WITH THE FOLLOWING KEY:
1 AAAAAU 00  0  0 BBBBB.BBBBBBBB  .CCCCCCCC  00000-0  00000-0 0  DDDZ
2 AAAAA EEE.EEEE FFF.FFFF GGGGGGG HHH.HHHH III.IIII JJ.JJJJJJJJKKKKKZ
KEY: A-CATALOGNUM B-EPOCHTIME C-DECAY D-ELSETNUM E-INCLINATION F-RAAN
G-ECCENTRICITY H-ARGPERIGEE I-MNANOM J-MNMOTION K-ORBITNUM Z-CHECKSUM

TO ALL RADIO AMATEURS BT

AO-07
1 07530U 74089B   10049.13173512 -.00000027  00000-0  10000-3 0  7071
2 07530 101.4095 069.5882 0012111 147.2606 212.9217 12.53577763613535
FO-29
1 24278U 96046B   10049.63410201 -.00000031  00000-0  18108-5 0  2495
2 24278 098.5208 255.1112 0351374 071.4165 292.4794 13.52947630667074
SO-33
1 25509U 98061B   10049.50842320  .00000289  00000-0  45603-4 0  6520
2 25509 031.4318 099.6309 0353957 332.1030 026.1067 14.28288332591078
RS-22
1 27939U 03042A   10047.57913563  .00000170  00000-0  41554-4 0 00116
2 27939 097.9110 278.0563 0014737 081.5934 278.6930 14.63382004341310
VO-52
1 28650U 05017B   10049.61755141  .00000432  00000-0  61078-4 0  4381
2 28650 097.7085 107.5905 0026084 305.8734 054.0038 14.81686119259131
SO-67
1 35870U 09049F   10049.76775978  .00001467  00000-0  65419-4 0  4582
2 35870 097.3489 101.7695 0012711 109.7472 358.7804 15.22891795 23443
HO-68
1 36122U 09072B   10049.59941557 -.00000045  00000-0  00000 0 0  1363
2 36122 100.4855 111.1613 0007124 246.8327 113.2042 13.16279758  8616
UO-11
1 14781U 84021B   10049.62297577 -.00000024  00000-0  39709-5 0  1784
2 14781 098.0717 100.9098 0008048 263.6707 096.3612 14.79768923394271
AO-16
1 20439U 90005D   10048.97428911  .00000023  00000-0  24238-4 0  8252
2 20439 098.3175 011.6685 0011372 156.1258 204.0453 14.31848458 48323
LO-19
1 20442U 90005G   10049.34058196  .00000061  00000-0  38140-4 0  7362
2 20442 098.2791 018.3042 0012499 150.9365 209.2529 14.32081633 48543
AO-27
1 22825U 93061C   10049.00515445  .00000054  00000-0  38127-4 0  4603
2 22825 098.4720 000.1228 0007506 258.6617 101.3710 14.29286803855023
IO-26
1 22826U 93061D   10049.79180224  .00000022  00000-0  25297-4 0  1957
2 22826 098.4655 001.5349 0008052 252.1106 107.9202 14.29541113855249
GO-32
1 25397U 98043D   10049.14389452  .00000060  00000-0  44658-4 0  1157
2 25397 098.3164 063.1359 0000405 201.4016 158.7158 14.23171911603115
NO-44
1 26931U 01043C   10048.64093583  .00000205  00000-0  11230-3 0  3890
2 26931 067.0536 151.9759 0006615 264.6701 095.3658 14.29584106437663
SO-50
1 27607U 02058C   10048.87410718  .00000109  00000-0  39033-4 0  1057
2 27607 064.5605 358.9043 0038664 131.7280 228.7130 14.71500150384823
CO-55
1 27844U 03031E   10048.64995670  .00000072  00000-0  53582-4 0  7827
2 27844 098.7128 059.3306 0010339 151.7469 208.4261 14.20684794344118
CO-57
1 27848U 03031J   10049.22570490  .00000059  00000-0  47892-4 0  7344
2 27848 098.7168 058.9746 0010265 153.0475 207.1255 14.20480532344156
AO-51
1 28375U 04025K   10049.17711116  .00000018  00000-0  17895-4 0  6063
2 28375 098.0562 049.4820 0084692 097.9732 263.1082 14.40669318296371
GENESAT1
1 29655U 06058C   10049.48781854  .00063107  00000-0  41407-3 0  9519
2 29655 040.0200 072.1131 0005225 196.0450 164.0199 15.74733911181178
CP3
1 31129U 07012N   10049.08743868  .00000281  00000-0  75723-4 0  5089
2 31129 097.9545 094.9449 0101411 243.0500 116.0419 14.52211808150570
CO-65
1 32785U 08021C   10049.30394748  .00000569  00000-0  79097-4 0  6070
2 32785 097.9102 115.8015 0014258 315.0122 044.9919 14.81588326 97884
KKS-1
1 33493U 09002B   10049.74423620  .00000896  00000-0  12277-3 0  2229
2 33493 098.0712 168.3381 0020460 161.0800 199.1191 14.80858903 57952
SOHLA-1
1 33496U 09002E   10048.93188030  .00000039  00000-0  14778-4 0   287
2 33496 098.0474 159.6314 0005957 214.3341 145.7466 14.69469362 57366
NOAA-10
1 16969U 86073A   10049.26910014 -.00000058  00000-0 -57039-5 0  9615
2 16969 098.6697 079.2832 0012092 195.3395 164.7420 14.27406573218619
NOAA-11
1 19531U 88089A   10049.29792657  .00000281  00000-0  16759-3 0  9771
2 19531 098.7708 140.3448 0012024 124.1782 236.0546 14.14916365104324
NOAA-12
1 21263U 91032A   10049.45904365  .00000012  00000-0  23938-4 0  4581
2 21263 098.7694 062.6113 0012950 148.2028 211.9942 14.25616746975483
MET-3/5
1 21655U 91056A   10048.90900504  .00000051  00000-0  10000-3 0  7392
2 21655 082.5559 032.9006 0012361 290.1715 069.8104 13.17023753889974
MET-2/21
1 22782U 93055A   10048.90176136  .00000079  00000-0  57737-4 0  6995
2 22782 082.5524 347.0793 0022979 021.4008 338.8095 13.83642951831589
OKEAN-4
1 23317U 94066A   10049.68888983  .00000334  00000-0  38373-4 0  1577
2 23317 082.5392 104.4677 0020337 273.1386 086.7503 14.82769538828898
NOAA-14
1 23455U 94089A   10049.45799864  .00000022  00000-0  35351-4 0  9529
2 23455 098.8863 130.9991 0008882 208.7757 151.2927 14.13779100780721
NOAA-15
1 25338U 98030A   10049.19419780  .00000112  00000-0  66671-4 0  2711
2 25338 098.6098 038.3112 0011541 064.3466 295.8908 14.24807829611804
RESURS
1 25394U 98043A   10049.12488842  .00000003  00000-0  18975-4 0  4349
2 25394 098.3152 073.6354 0001052 170.0891 190.0306 14.24193135603400
FENGYUN1
1 25730U 99025A   10045.95387413  .00000119  00000-0  94719-4 0  9739
2 25730 098.7754 014.1424 0023258 251.3712 108.4972 14.08168687554482
OKEAN-0
1 25860U 99039A   10049.11448979  .00000103  00000-0  23072-4 0  9169
2 25860 097.8181 025.9528 0001849 090.5758 269.5678 14.73614529569368
NOAA-16
1 26536U 00055A   10049.15637775  .00000313  00000-0  19448-3 0  7496
2 26536 099.1768 063.7838 0009843 313.9018 046.1351 14.12548248485026
NOAA-17
1 27453U 02032A   10049.47196509  .00000212  00000-0  11034-3 0  7550
2 27453 098.4479 104.6078 0012540 122.1370 238.1032 14.24132671397805
NOAA-18
1 28654U 05018A   10049.48256680  .00000222  00000-0  14709-3 0  2412
2 28654 098.9386 356.1660 0014817 031.2277 328.9786 14.11328591244693
NOAA-19
1 33591U 09005A   10049.51564461 -.00000053  00000-0 -56075-5 0  4433
2 33591 098.7779 354.2307 0013206 265.5880 094.3761 14.11026268 53177
HUBBLE
1 20580U 90037B   10047.16192774  .00000648  00000-0  36922-4 0 05173
2 20580 028.4704 309.9015 0003209 357.0922 002.9784 15.00896951886546
ISS
1 25544U 98067A   10050.02914869  .00001439  00000-0  13513-4 0  6075
2 25544 051.6480 117.1846 0013101 351.0154 073.1045 15.75446199644868
CO-58
1 28895U 05043F   10049.13339100  .00000151  00000-0  41000-4 0  5158
2 28895 098.0321 297.4429 0016914 300.3999 059.5567 14.59847516229615
FALCON
1 30776U 07006E   10047.43047901  .00001254  00000-0  93198-4 0 07732
2 30776 035.4335 057.3322 0001268 261.0322 099.0251 15.03470483161877
MAST
1 31126U 07012K   10044.93507603  .00000107  00000-0  34886-4 0  7972
2 31126 097.9565 093.2203 0093653 249.1577 109.9756 14.53552966150151
CAPE1
1 31130U 07012P   10049.07011307  .00000265  00000-0  72121-4 0  8170
2 31130 097.9554 094.8001 0101728 243.4249 115.6478 14.52136222150374
COMPASS
1 32787U 08021E   10049.32407991  .00000450  00000-0  63658-4 0  5994
2 32787 097.9078 115.6494 0015078 315.3723 044.6313 14.81762469 97896
AAUSAT2
1 32788U 08021F   10048.86567794  .00000383  00000-0  55126-4 0  5920
2 32788 097.9113 115.2994 0014526 319.5856 040.4289 14.81895465 97831
DO-64
1 32789U 08021G   10049.62607876  .00001662  00000-0  21600-3 0  6091
2 32789 097.9151 116.4007 0014729 312.9028 047.0967 14.81973267 97940
CO-66
1 32791U 08021J   10048.72163066  .00000212  00000-0  33677-4 0  5897
2 32791 097.9099 115.0803 0015532 316.4863 043.5111 14.81566093 97769
RS-30
1 32953U 08025A   10049.64883551  .00000010  00000-0  00000 0 0  5289
2 32953 082.5003 103.4008 0018864 005.6542 354.4750 12.43003433 79015
TACSAT-3
1 35001U 09028A   10048.88124709  .00010021  00000-0  24596-3 0  2187
2 35001 040.4499 210.0830 0020998 194.7732 165.2471 15.40345211 42228
PHARMSAT
1 35002U 09028B   10047.84331917  .00008335  00000-0  20081-3 0 02072
2 35002 040.4681 214.7966 0024428 190.4687 169.5622 15.40984345042072
HAWKSAT1
1 35003U 09028C   10047.81588178  .00017116  00000-0  38391-3 0 02174
2 35003 040.4535 212.5732 0022272 198.7926 161.2059 15.42690860042105
CP6
1 35004U 09028D   10049.80212023  .00020625  00000-0  45380-3 0  2107
2 35004 040.4609 200.3611 0023764 212.0164 147.9207 15.43139174 42406
AEROCUB3
1 35005U 09028E   10049.82066540  .00039061  00000-0  82865-3 0  2238
2 35005 040.4736 200.8041 0023580 212.3155 147.6216 15.43980962 42405
DRAGNSAT
1 35690U 09038B   10049.14740193  .00272385  43473-4  44635-3 0  2637
2 35690 051.6333 102.6667 0005994 041.2731 318.8665 16.02690791 32192
POLLUX
1 35693U 09038E   10049.50004425  .00179327  00000-0  36447-3 0  2630
2 35693 051.6324 102.8400 0004271 046.9757 313.2143 15.98718823 32190
CASTOR
1 35694U 09038F   10049.49369013  .00051871  00000-0  18969-3 0  1974
2 35694 051.6368 108.2170 0004247 078.3344 281.8663 15.87599985 32121
METEOR-M
1 35865U 09049A   10049.27649095  .00000176  00000-0  10000-3 0  1300
2 35865 098.7760 103.8386 0002453 009.7993 350.3228 14.21828712 21828
RS-38
1 35869U 09049E   10049.11980035  .00000176  00000-0  10000-3 0  1321
2 35869 098.7752 103.7039 0004557 000.8425 359.2730 14.21975474 21808
/EX




More information about the Keps mailing list